Regional Weather Roundup
Issued by NWS

Home | Current Version | Previous Version | Text Only | Print | Product List | Glossary Off
Versions: 1 2 3 4 5 6 7 8 9 10 11 12 13 14 15 16 17 18 19 20 21 22 23 24 25 26 27 28 29 30 31 32 33 34 35 36 37 38 39 40 41 42 43 44 45 46 47 48 49 50

000
ASUS45 KSLC 301310
RWRUT

UTAH REGIONAL WEATHER ROUNDUP
NATIONAL WEATHER SERVICE SALT LAKE CITY UT
700 AM MDT TUE SEP 30 2014

UTZ001>011-023>025-301400-

NORTHERN UTAH

CITY           SKY/WX    TMP DP  RH WIND       PRES   REMARKS
HILL AFB       CLOUDY    51  50  97 SE5       29.97F
LOGAN          NOT AVBL
OGDEN          CLOUDY    52  49  89 SE7       29.96S
PROVO AIRPORT  MOCLDY    50  43  76 E7        30.00S
SALT LAKE CITY CLOUDY    53  49  86 E7        29.96F
VERNAL         CLEAR     40  39  97 W5        29.97S
WENDOVER       MOCLDY    50  39  66 W5        29.97S
HEBER CITY     CLOUDY    45  43  93 CALM      30.00S
WEST JORDAN    CLOUDY    52  48  87 SE5       29.98S

$$

UTZ012>022-026-027-301400-

SOUTHERN UTAH

CITY           SKY/WX    TMP DP  RH WIND       PRES   REMARKS
BRYCE CANYON   PTCLDY    35  33  92 CALM      30.11S
CEDAR CITY     CLEAR     47  38  71 SE5       30.03S
MILFORD        CLEAR     42  38  85 W6        30.01S
MOAB/CYNLANDS  PTCLDY    48  45  89 CALM      29.98R
PRICE          MOCLDY    47  42  83 CALM      30.01S
ST GEORGE      CLOUDY    55  41  58 SE5       29.97S
KANAB            N/A     43  43 100 NE3       30.07S

$$

REGIONAL REPORTS     COLORADO/ARIZONA

CITY           SKY/WX    TMP DP  RH WIND       PRES   REMARKS
CRAIG, CO      MOCLDY    43  37  79 W7        29.99S
GRAND JUNCTION CLOUDY    46  42  86 SE12      29.99F
RIFLE          CLOUDY    42  40  92 SW3       30.02F
MONTROSE       CLOUDY    41  40  96 SE3       30.05F
CORTEZ         CLEAR     38  36  92 E3        30.06F
PAGE, AZ       NOT AVBL
GRAND CANYON   CLEAR     32  31  96 CALM      30.11S
KINGMAN        NOT AVBL
FLAGSTAFF      CLEAR     32  30  92 CALM      30.12S

$$

REGIONAL REPORTS    NEVADA/IDAHO/WYOMING

CITY           SKY/WX    TMP DP  RH WIND       PRES   REMARKS
LAS VEGAS, NV  CLEAR     66  38  35 S9        29.88S
ELY            MOCLDY    36  35  96 S10       30.08S WCI  28
ELKO           CLOUDY    40  38  93 CALM      30.01F
POCATELLO, ID  CLOUDY    50  50 100 SW7       29.93F
BURLEY         PTCLDY    64  55  72 CALM      29.96R
EVANSTON, WY   CLOUDY    42  40  92 SW16      29.99S
ROCK SPRINGS   MOCLDY    41  36  82 W18       29.95S

$$


USA.gov is the U.S. government's official web portal to all federal, state and local government web resources and services.